PBO Station Position Time Series. Reference Frame : NAM14
Format Version,1.1.0
4-character ID,P370
Station name,AshlandAirOR2005
Begin Date, 2005-08-15
End Date, 2019-10-07
Release Date, 2019-10-08
Reference position, 42.1909870668 North Latitude, -122.6563719415 East Longitude, 555.05210 meters elevation,
Date, North (mm), East (mm), Vertical (mm), North Std. Deviation (mm), East Std. Deviation (mm),              Vertical Std. Deviation (mm), Quality,
2005-08-15,0.00, 0.00, 0.00, 2.20, 1.62, 7.35, repro,
2005-08-16,0.62, -1.26, -5.16, 2.21, 1.63, 7.33, repro,
2005-08-17,1.80, -0.76, -5.90, 2.22, 1.63, 7.39, repro,
2005-08-18,1.75, -1.02, 3.83, 2.15, 1.57, 7.19, repro,
2005-08-19,2.27, -0.32, -1.19, 2.16, 1.58, 7.24, repro,
2005-08-20,3.03, -1.47, -0.89, 2.23, 1.63, 7.45, repro,
2005-08-21,1.85, 0.02, 2.00, 2.16, 1.59, 7.28, repro,
2005-08-22,1.87, -0.90, -4.28, 2.21, 1.63, 7.51, repro,
2005-08-23,1.64, -1.46, -2.39, 2.16, 1.57, 7.18, repro,
2005-08-24,1.32, -0.45, -1.81, 2.15, 1.58, 7.20, repro,
2005-08-25,0.74, -0.49, 1.96, 2.16, 1.57, 7.22, repro,
2005-08-26,1.66, 0.52, 2.79, 2.15, 1.58, 7.20, repro,
2005-08-27,1.52, -0.47, 1.02, 2.16, 1.57, 7.20, repro,
2005-08-28,1.55, -0.87, -3.79, 2.15, 1.57, 7.14, repro,
2005-08-29,-0.11, -3.04, 3.78, 2.15, 1.57, 7.16, repro,
2005-08-30,2.29, -1.59, -3.95, 2.15, 1.57, 7.14, repro,
2005-08-31,0.57, -0.02, -0.40, 2.15, 1.57, 7.16, repro,
2005-09-01,1.72, 0.22, 1.18, 2.16, 1.61, 7.36, repro,
2005-09-02,3.07, -0.38, 2.67, 2.19, 1.62, 7.43, repro,
2005-09-03,1.05, -1.72, 0.77, 2.16, 1.59, 7.20, repro,
2005-09-04,2.14, -0.35, 0.86, 2.16, 1.58, 7.22, repro,
2005-09-05,1.80, -0.68, -0.19, 2.15, 1.58, 7.19, repro,
2005-09-06,1.89, -0.34, -1.39, 2.13, 1.57, 7.17, repro,
2005-09-07,0.94, -0.51, -2.82, 2.23, 1.58, 7.27, repro,
2005-09-08,1.31, 0.09, -4.86, 2.21, 1.58, 7.26, repro,
2005-09-09,1.65, -1.68, -0.65, 2.22, 1.58, 7.28, repro,
2005-09-10,3.26, -1.23, -0.15, 2.24, 1.59, 7.33, repro,
2005-09-11,3.16, 0.05, 4.10, 2.23, 1.58, 7.29, repro,
2005-09-12,1.64, -0.72, 4.30, 2.22, 1.57, 7.25, repro,
2005-09-13,1.68, 0.18, -1.76, 2.34, 1.66, 7.62, repro,
2005-09-14,2.29, -0.25, 1.40, 2.24, 1.63, 7.41, repro,
2005-09-15,2.51, -1.30, 0.40, 2.26, 1.63, 7.44, repro,
2005-09-16,1.05, 0.03, 3.49, 2.25, 1.64, 7.46, repro,
2005-09-17,-0.18, -1.33, 0.15, 2.15, 1.56, 7.18, repro,
2005-09-18,1.74, -1.32, -1.83, 2.13, 1.55, 7.11, repro,
2005-09-19,2.09, -0.15, -8.17, 2.23, 1.59, 7.44, repro,
2005-09-20,1.49, -1.00, -0.30, 2.14, 1.57, 7.14, repro,
2005-09-21,2.42, -1.71, -5.88, 2.19, 1.60, 7.36, repro,
2005-09-22,1.34, -1.37, -5.00, 2.15, 1.57, 7.20, repro,
2005-09-23,2.38, -2.39, -1.64, 2.18, 1.61, 7.30, repro,
2005-09-24,2.47, -2.33, -6.80, 2.21, 1.65, 7.55, repro,
2005-09-25,-1.05, -1.66, 3.87, 2.17, 1.61, 7.33, repro,
2005-09-26,2.26, -1.91, 1.48, 2.20, 1.68, 7.62, repro,
2005-09-27,0.49, -1.99, 4.72, 2.20, 1.62, 7.38, repro,
2005-09-28,0.08, -1.47, 3.61, 2.21, 1.60, 7.30, repro,
2005-09-29,0.81, -2.71, 2.16, 2.23, 1.59, 7.27, repro,
2005-09-30,1.15, -1.97, -0.62, 2.21, 1.63, 7.34, repro,
2005-10-01,0.29, -1.92, 10.97, 2.16, 1.57, 7.19, repro,
2005-10-02,0.32, -2.41, 2.23, 2.19, 1.61, 7.32, repro,
2005-10-03,1.06, -1.98, 1.44, 2.18, 1.60, 7.25, repro,
2005-10-04,0.39, -0.49, -6.19, 2.24, 1.63, 7.47, repro,
2005-10-05,0.91, -1.07, -8.28, 2.23, 1.64, 7.55, repro,
2005-10-06,0.89, -1.77, -4.38, 2.23, 1.68, 7.51, repro,
2005-10-07,0.67, -2.26, 8.26, 2.18, 1.61, 7.35, repro,
2005-10-08,0.34, -1.84, 8.44, 2.16, 1.56, 7.13, repro,
2005-10-09,0.08, -1.92, 2.55, 2.17, 1.56, 7.14, repro,
2005-10-10,0.16, -2.33, -3.91, 2.15, 1.56, 7.13, repro,
2005-10-11,-0.02, -0.75, -2.38, 2.18, 1.60, 7.27, repro,
2005-10-12,0.09, -0.88, -1.98, 2.19, 1.60, 7.30, repro,
2005-10-13,2.23, -1.92, 3.17, 2.18, 1.62, 7.33, repro,
2005-10-14,-0.59, -3.64, 3.06, 2.18, 1.58, 7.22, repro,
2005-10-15,0.14, -1.74, 6.34, 2.17, 1.57, 7.17, repro,
2005-10-16,-1.03, -1.85, 0.42, 2.23, 1.63, 7.68, repro,
2005-10-17,0.63, -1.43, -0.87, 2.17, 1.58, 7.21, repro,
2005-10-18,-0.07, -1.28, 4.79, 2.31, 1.73, 7.82, repro,
2005-10-19,2.52, -0.63, 6.99, 2.25, 1.64, 7.50, repro,
2005-10-20,0.06, -0.66, 0.31, 2.31, 1.63, 7.47, repro,
2005-10-21,0.20, -1.55, 0.56, 2.26, 1.66, 7.62, repro,
2005-10-22,1.48, -1.10, -2.52, 2.15, 1.56, 7.14, repro,
2005-10-23,1.65, -1.48, 2.98, 2.20, 1.61, 7.35, repro,
2005-10-24,0.90, -1.08, -0.11, 2.17, 1.59, 7.21, repro,
2005-10-25,0.97, -2.56, 3.52, 2.24, 1.62, 7.36, repro,
2005-10-26,0.80, -1.61, 5.84, 2.23, 1.66, 7.42, repro,
2005-10-27,0.73, -0.86, -3.63, 2.25, 1.70, 7.58, repro,
2005-10-28,2.40, -0.20, 7.80, 2.15, 1.58, 7.19, repro,
2005-10-29,0.68, -1.97, 4.56, 2.20, 1.63, 7.45, repro,
2005-10-30,1.33, -0.82, -2.43, 2.16, 1.57, 7.17, repro,
2005-10-31,1.37, -0.97, -6.32, 2.34, 1.75, 7.83, repro,
2005-11-01,2.22, -5.39, -8.29, 2.31, 1.71, 7.63, repro,
2005-11-02,0.96, -2.08, -1.01, 2.28, 1.73, 7.67, repro,
2005-11-03,0.99, -1.85, 7.05, 2.21, 1.66, 7.42, repro,
2005-11-04,1.56, -1.82, -1.82, 2.29, 1.71, 7.65, repro,
2005-11-05,0.86, -0.73, -1.70, 2.31, 1.74, 7.72, repro,
2005-11-06,-0.53, -2.20, -9.51, 2.29, 1.74, 7.61, repro,
2005-11-07,-0.34, -1.34, -6.46, 2.30, 1.75, 7.76, repro,
2005-11-08,-0.38, -1.15, -6.67, 2.29, 1.74, 7.74, repro,
2005-11-09,1.44, 0.13, -6.31, 2.35, 1.81, 8.01, repro,
2005-11-10,0.04, -0.89, -5.92, 2.46, 1.82, 8.15, repro,
2005-11-11,0.77, -1.83, -3.88, 2.36, 1.74, 7.88, repro,
2005-11-12,-1.00, -0.90, -6.10, 2.14, 1.62, 7.14, repro,
2005-11-13,0.50, -0.69, -9.65, 2.40, 1.80, 7.95, repro,
2005-11-14,0.46, -1.63, -7.70, 2.25, 1.68, 7.55, repro,
2005-11-15,0.64, -0.33, -14.88, 2.17, 1.57, 7.21, repro,
2005-11-16,1.20, -1.33, -19.05, 2.22, 1.66, 7.47, repro,
2005-11-17,-0.47, -1.01, -11.78, 2.14, 1.56, 7.09, repro,
2005-11-18,-0.43, -0.63, -10.18, 2.14, 1.56, 7.14, repro,
2005-11-19,0.57, -1.03, -10.45, 2.16, 1.57, 7.20, repro,
2005-11-20,0.79, -1.18, -9.46, 2.20, 1.61, 7.38, repro,
2005-11-21,0.38, -1.06, -9.06, 2.30, 1.72, 7.92, repro,
2005-11-22,0.57, -0.69, -5.78, 2.23, 1.67, 7.50, repro,
2005-11-23,-0.61, -0.99, -3.27, 2.19, 1.60, 7.30, repro,
2005-11-24,0.36, -0.26, -5.24, 2.22, 1.63, 7.37, repro,
2005-11-25,-2.16, -4.00, 3.92, 2.20, 1.64, 7.44, repro,
2005-11-26,0.51, -1.05, -2.88, 2.26, 1.68, 7.61, repro,
2005-11-27,0.23, -1.89, -3.30, 2.20, 1.64, 7.43, repro,
2005-11-28,0.55, -1.27, -9.65, 2.23, 1.67, 7.58, repro,
2005-11-29,0.05, -1.00, -5.33, 2.23, 1.64, 7.46, repro,
2005-11-30,1.28, -0.30, -12.79, 2.21, 1.64, 7.43, repro,
2005-12-23,-1.79, -2.83, -12.10, 3.92, 3.28, 13.96, repro,
2005-12-24,-0.91, 1.29, -13.64, 2.31, 1.76, 7.79, repro,
2005-12-25,-1.73, -1.60, -11.32, 2.24, 1.68, 7.41, repro,
2005-12-26,0.22, -2.76, -4.81, 2.18, 1.61, 7.19, repro,
2005-12-27,0.21, -2.65, -10.89, 2.27, 1.71, 7.55, repro,
2005-12-28,-5.53, -5.00, -10.29, 2.21, 1.68, 7.33, repro,
2005-12-29,0.85, 0.75, -14.28, 2.30, 1.74, 7.71, repro,
2005-12-30,-2.19, -3.13, -1.08, 2.41, 1.81, 8.32, repro,
2005-12-31,0.66, -2.64, -10.83, 2.27, 1.71, 7.50, repro,
2006-01-01,-1.65, -2.24, -7.27, 2.29, 1.73, 7.63, repro,
2006-01-02,0.04, -2.59, -7.91, 2.29, 1.73, 7.45, repro,
2006-01-03,-1.59, -1.29, -4.64, 2.41, 1.89, 8.10, repro,
2006-01-04,1.61, -0.72, -18.83, 2.29, 1.80, 7.63, repro,
2006-01-05,8.50, -2.84, -15.93, 2.23, 1.75, 7.58, repro,
2006-01-06,4.00, -2.06, -13.91, 2.29, 1.77, 7.76, repro,
2006-01-07,0.55, -0.93, -18.40, 2.23, 1.68, 7.40, repro,
2006-01-08,2.02, -0.03, -8.05, 2.24, 1.73, 7.53, repro,
2006-01-09,2.27, -0.95, -6.71, 2.35, 1.85, 7.91, repro,
2006-01-10,3.07, 2.06, -11.39, 2.29, 1.77, 7.69, repro,
2006-01-11,-0.55, -1.44, -15.91, 2.28, 1.75, 7.61, repro,
2006-01-12,1.32, -0.39, -14.48, 2.25, 1.72, 7.41, repro,
2006-01-13,-10.22, -3.38, -12.34, 2.36, 1.80, 8.03, repro,
2006-01-14,1.10, -1.04, -8.21, 2.20, 1.65, 7.24, repro,
2006-01-15,1.14, 0.10, -8.88, 2.22, 1.67, 7.25, repro,
2006-01-16,0.06, 0.00, -7.07, 2.36, 1.87, 7.88, repro,
2006-01-17,0.72, -0.87, -7.56, 2.22, 1.68, 7.38, repro,
2006-01-18,0.82, 0.49, -6.90, 2.19, 1.59, 7.17, repro,
2006-01-19,1.06, 0.07, -10.68, 2.22, 1.60, 7.27, repro,
2006-01-20,-0.01, 0.75, -20.67, 2.21, 1.61, 7.32, repro,
2006-01-21,1.79, 0.93, -13.61, 2.19, 1.63, 7.25, repro,
2006-01-22,1.16, 0.70, -16.87, 2.24, 1.64, 7.29, repro,
2006-01-23,0.96, -0.01, -15.54, 2.16, 1.56, 7.06, repro,
2006-01-24,0.36, 0.94, -17.70, 2.27, 1.66, 7.41, repro,
2006-01-25,6.53, 1.24, -5.57, 2.15, 1.59, 7.03, repro,
2006-01-26,1.23, 0.38, -13.69, 2.11, 1.54, 6.99, repro,
2006-01-27,2.17, 0.46, -14.82, 2.12, 1.54, 6.98, repro,
2006-01-28,0.02, -2.50, -13.77, 2.12, 1.55, 7.03, repro,
2006-01-29,-0.18, 1.16, -18.54, 2.11, 1.54, 7.00, repro,
2006-01-30,-2.49, -1.34, -9.14, 2.12, 1.54, 7.00, repro,
2006-01-31,0.19, -0.95, -10.17, 2.18, 1.58, 7.14, repro,
2006-02-01,2.12, 1.92, -13.43, 2.15, 1.54, 7.04, repro,
2006-02-02,1.18, 0.81, -10.01, 2.14, 1.56, 7.12, repro,
2006-02-03,1.63, 0.70, -6.68, 2.13, 1.54, 7.04, repro,
2006-02-04,-1.30, -2.09, -13.32, 2.13, 1.54, 7.06, repro,
2006-02-05,0.26, 0.28, -17.38, 2.17, 1.57, 7.18, repro,
2006-02-06,-0.12, 1.54, -19.79, 2.12, 1.52, 7.01, repro,
2006-02-07,0.93, 1.11, -19.18, 2.13, 1.52, 7.07, repro,
2006-02-08,1.47, 0.80, -23.99, 2.12, 1.54, 7.11, repro,
2006-02-09,-0.51, 0.90, -19.55, 2.20, 1.56, 7.26, repro,
2006-02-10,-2.41, -0.03, -15.88, 2.32, 1.62, 7.41, repro,
2006-02-11,0.04, 1.32, -22.07, 2.13, 1.52, 7.05, repro,
2006-02-12,0.54, 0.72, -24.77, 2.13, 1.53, 7.11, repro,
2006-02-13,0.79, -0.37, -19.64, 2.16, 1.56, 7.14, repro,
2006-02-14,0.32, 1.19, -12.99, 2.18, 1.56, 7.21, repro,
2006-02-15,0.06, 1.50, -15.83, 2.13, 1.52, 7.09, repro,
2006-02-16,0.46, 2.10, -21.06, 2.13, 1.53, 7.09, repro,
2006-02-17,-0.00, 1.50, -16.17, 2.20, 1.54, 7.16, repro,
2006-02-18,0.52, 1.27, -16.36, 2.18, 1.57, 7.16, repro,
2006-02-19,0.86, 0.97, -12.16, 2.19, 1.58, 7.23, repro,
2006-02-20,0.60, 0.64, -15.50, 2.17, 1.60, 7.26, repro,
2006-02-21,0.66, 1.73, -13.55, 2.22, 1.63, 7.46, repro,
2006-02-22,0.00, 1.49, -12.72, 2.18, 1.58, 7.19, repro,
2006-02-23,1.53, 1.44, -9.52, 2.18, 1.58, 7.22, repro,
2006-02-24,1.01, 1.00, -12.17, 2.17, 1.58, 7.20, repro,
2006-02-25,1.57, 1.40, -16.51, 2.14, 1.54, 7.11, repro,
2006-02-26,0.09, 0.89, -16.58, 2.16, 1.55, 7.24, repro,
2006-02-27,-10.97, -2.52, -6.77, 2.16, 1.58, 7.26, repro,
2006-02-28,-1.00, 0.82, 0.50, 2.17, 1.55, 7.17, repro,
2006-03-01,-6.11, -4.70, -5.65, 2.23, 1.58, 7.32, repro,
2006-03-02,-1.68, -0.31, -17.09, 2.12, 1.54, 7.08, repro,
2006-03-03,1.16, 1.98, -6.17, 2.24, 1.60, 7.58, repro,
2006-03-04,0.22, 1.64, -9.16, 2.12, 1.54, 7.05, repro,
2006-03-05,-14.28, 5.55, -32.23, 2.16, 1.57, 7.16, repro,
2006-03-06,-3.80, -3.04, -11.04, 2.12, 1.55, 7.14, repro,
2006-03-07,1.35, 0.80, -12.50, 2.12, 1.54, 7.09, repro,
2006-03-08,1.80, 0.87, -11.14, 2.16, 1.59, 7.35, repro,
2006-03-09,1.04, 1.63, -12.30, 2.12, 1.54, 7.07, repro,
2006-03-10,-0.14, 1.53, -7.97, 2.17, 1.58, 7.20, repro,
2006-03-11,0.95, 0.99, -9.47, 2.21, 1.59, 7.36, repro,
2006-03-12,0.74, 1.01, -14.56, 2.21, 1.60, 7.31, repro,
2006-03-13,0.89, 1.55, -11.07, 2.16, 1.55, 7.16, repro,
2006-03-14,0.49, 0.34, -11.76, 2.17, 1.55, 7.20, repro,
2006-03-15,0.30, 0.41, -14.44, 2.22, 1.62, 7.37, repro,
2006-03-16,-5.59, -2.82, -17.98, 2.30, 1.64, 7.59, repro,
2006-03-17,0.33, 2.59, -21.03, 2.30, 1.66, 7.68, repro,
2006-03-18,-0.41, -0.35, -11.83, 2.15, 1.57, 7.21, repro,
2006-03-19,-1.03, 0.96, -16.00, 2.19, 1.62, 7.45, repro,
2006-03-20,1.36, 1.05, -11.79, 2.20, 1.62, 7.36, repro,
2006-03-21,0.19, 1.57, -12.89, 2.16, 1.57, 7.22, repro,
2006-03-22,1.22, 0.88, -15.94, 2.18, 1.60, 7.37, repro,
2006-03-23,3.93, 1.74, -26.34, 2.21, 1.61, 7.34, repro,
2006-03-24,-3.07, -2.12, -8.48, 2.27, 1.64, 7.57, repro,
2006-03-25,-0.27, 0.08, -7.42, 2.20, 1.60, 7.28, repro,
2006-03-26,0.29, 0.41, -17.86, 2.27, 1.66, 7.43, repro,
2006-03-27,0.94, 0.49, -10.02, 2.29, 1.66, 7.56, repro,
2006-03-28,-8.34, -2.34, -6.78, 2.18, 1.64, 7.44, repro,
2006-03-29,0.51, 0.90, -10.22, 2.07, 1.56, 7.03, repro,
2006-03-30,0.34, 2.14, -11.26, 2.07, 1.54, 6.99, repro,
2006-03-31,-2.46, -0.87, -11.46, 2.08, 1.56, 7.04, repro,
2006-04-01,1.39, 1.92, -13.32, 2.09, 1.57, 7.08, repro,
2006-04-02,2.45, 1.61, -13.47, 2.09, 1.57, 7.13, repro,
2006-04-03,-3.37, 1.88, -8.69, 2.09, 1.55, 7.07, repro,
2006-04-04,-0.22, 0.88, -6.94, 2.08, 1.55, 7.05, repro,
2006-04-05,1.14, 0.96, -4.84, 2.09, 1.54, 7.02, repro,
2006-04-06,1.16, 1.26, -10.56, 2.13, 1.60, 7.30, repro,
2006-04-07,-0.33, 2.35, -8.71, 2.20, 1.61, 7.41, repro,
2006-04-08,-0.48, 1.64, -14.58, 2.21, 1.61, 7.44, repro,
2006-04-09,1.52, 0.92, -13.65, 2.08, 1.55, 7.07, repro,
2006-04-10,0.64, 0.77, -12.39, 2.07, 1.54, 7.04, repro,
2006-04-11,5.72, 3.67, -9.68, 2.15, 1.60, 7.37, repro,
2006-04-12,5.25, 2.04, -22.49, 2.15, 1.60, 7.41, repro,
2006-04-13,-0.04, 1.44, -15.96, 2.13, 1.61, 7.25, repro,
2006-04-14,-0.03, 0.73, -12.93, 2.08, 1.55, 7.07, repro,
2006-04-15,1.01, 1.82, -7.10, 2.14, 1.59, 7.26, repro,
2006-04-16,0.19, 0.37, -6.22, 2.07, 1.55, 7.07, repro,
2006-04-17,1.15, 2.34, -10.87, 2.09, 1.55, 7.09, repro,
2006-04-18,1.40, 1.25, -18.42, 2.09, 1.56, 7.13, repro,
2006-04-19,0.91, 2.09, -17.39, 2.08, 1.56, 7.10, repro,
2006-04-20,0.42, -0.01, -10.29, 2.11, 1.58, 7.20, repro,
2006-04-21,1.35, 2.27, -7.77, 2.07, 1.55, 7.05, repro,
2006-04-22,2.33, 2.38, -13.06, 2.07, 1.54, 7.04, repro,
2006-04-23,1.65, 2.59, -16.78, 2.13, 1.59, 7.22, repro,
2006-04-24,1.19, 1.70, -14.72, 2.13, 1.61, 7.31, repro,
2006-04-25,1.44, 1.44, -15.71, 2.12, 1.59, 7.24, repro,
2006-04-26,2.88, 2.39, -17.50, 2.12, 1.58, 7.22, repro,
2006-04-27,1.84, 2.41, -18.79, 2.17, 1.60, 7.28, repro,
2006-04-28,1.16, 1.15, -21.54, 2.14, 1.55, 7.13, repro,
2006-04-29,2.41, 2.89, -20.00, 2.10, 1.55, 7.15, repro,
2006-04-30,0.72, 1.71, -17.03, 2.09, 1.56, 7.14, repro,
2006-05-01,3.47, 2.47, -17.36, 2.08, 1.54, 7.07, repro,
2006-05-02,1.67, 1.53, -13.60, 2.08, 1.55, 7.09, repro,
2006-05-03,1.41, 1.46, -15.15, 2.06, 1.55, 7.04, repro,
2006-05-04,2.08, 0.42, -13.26, 2.10, 1.55, 7.13, repro,
2006-05-05,0.49, 1.52, -7.36, 2.09, 1.56, 7.16, repro,
2006-05-06,1.58, 1.17, -10.56, 2.08, 1.54, 7.09, repro,
2006-05-07,2.00, 0.75, -9.55, 2.07, 1.54, 7.08, repro,
2006-05-08,2.24, 1.35, -20.12, 2.08, 1.55, 7.08, repro,
2006-05-09,1.94, 2.04, -15.49, 2.13, 1.58, 7.18, repro,
2006-05-10,2.29, 1.86, -12.41, 2.10, 1.55, 7.16, repro,
2006-05-11,3.21, 1.30, -15.45, 2.09, 1.55, 7.15, repro,
2006-05-12,1.55, 0.56, -12.55, 2.08, 1.54, 7.08, repro,
2006-05-13,2.02, 1.93, -9.79, 2.07, 1.54, 7.07, repro,
2006-05-14,1.18, 1.38, -14.90, 2.07, 1.54, 7.08, repro,
2006-05-15,0.72, 3.45, -7.42, 2.09, 1.55, 7.17, repro,
2006-05-16,1.47, 3.25, -15.89, 2.11, 1.59, 7.33, repro,
2006-05-17,1.75, 2.36, -10.95, 2.25, 1.62, 7.72, repro,
2006-05-18,6.08, -0.00, -0.30, 2.10, 1.55, 7.15, repro,
2006-05-19,-7.24, -0.67, -8.27, 2.14, 1.57, 7.22, repro,
2006-05-20,1.77, 1.18, -4.48, 2.14, 1.58, 7.23, repro,
2006-05-21,2.40, 3.77, -9.27, 2.18, 1.61, 7.42, repro,
2006-05-22,0.80, 3.94, 1.03, 2.14, 1.57, 7.20, repro,
2006-05-23,-1.11, -3.82, -11.17, 2.15, 1.58, 7.26, repro,
2006-05-24,-0.90, 0.20, -13.15, 2.15, 1.57, 7.23, repro,
2006-05-25,1.44, 1.58, -11.22, 2.25, 1.64, 7.62, repro,
2006-05-26,1.74, 0.59, -9.01, 2.20, 1.61, 7.46, repro,
2006-05-27,1.16, 1.48, -6.79, 2.16, 1.58, 7.29, repro,
2006-05-28,0.70, 1.15, -8.12, 2.14, 1.58, 7.25, repro,
2006-05-29,0.69, 2.04, -6.82, 2.16, 1.58, 7.27, repro,
2006-05-30,-0.07, 1.67, -13.96, 2.19, 1.60, 7.39, repro,
2006-05-31,0.72, 3.85, -12.56, 2.19, 1.61, 7.40, repro,
2006-06-01,6.38, 3.74, -8.63, 2.17, 1.59, 7.34, repro,
2006-06-02,2.14, 2.45, -5.68, 2.32, 1.68, 7.81, repro,
2006-06-03,1.37, 2.50, -12.19, 2.25, 1.64, 7.60, repro,
2006-06-04,3.15, -0.52, 5.93, 2.23, 1.63, 7.52, repro,
2006-06-05,1.94, 0.36, -7.67, 2.20, 1.61, 7.43, repro,
2006-06-06,1.95, 2.57, -6.92, 2.22, 1.60, 7.44, repro,
2006-06-07,2.64, 1.55, -8.94, 2.23, 1.62, 7.54, repro,
2006-06-08,2.15, 1.88, -16.25, 2.14, 1.57, 7.21, repro,
2006-06-09,0.19, 1.84, -9.90, 2.14, 1.58, 7.21, repro,
2006-06-10,1.72, 1.04, -9.01, 2.14, 1.58, 7.24, repro,
2006-06-11,1.39, 1.64, -3.38, 2.16, 1.57, 7.24, repro,
2006-06-12,1.84, 3.79, -4.81, 2.18, 1.60, 7.35, repro,
2006-06-13,2.47, 2.72, -16.11, 2.21, 1.61, 7.41, repro,
2006-06-14,1.45, 0.96, -8.53, 2.14, 1.58, 7.23, repro,
2006-06-15,1.80, 2.45, -8.89, 2.13, 1.58, 7.20, repro,
2006-06-16,0.73, 1.89, -11.27, 2.13, 1.58, 7.20, repro,
2006-06-17,2.03, 2.03, -5.88, 2.15, 1.58, 7.26, repro,
2006-06-18,-0.56, 1.35, -12.02, 2.16, 1.62, 7.44, repro,
2006-06-19,-0.25, 1.43, -13.92, 2.16, 1.62, 7.45, repro,
2006-06-20,1.18, 1.76, -8.48, 2.15, 1.62, 7.41, repro,
2006-06-21,1.72, 1.39, -6.59, 2.16, 1.62, 7.42, repro,
2006-06-22,0.51, 1.80, -12.52, 2.16, 1.62, 7.40, repro,
2006-06-23,1.69, 1.74, -16.11, 2.18, 1.63, 7.55, repro,
2006-06-24,1.16, 3.26, -11.13, 2.17, 1.63, 7.52, repro,
2006-06-25,0.33, 2.99, -10.79, 2.18, 1.64, 7.52, repro,
2006-06-26,1.77, 1.16, -11.93, 2.23, 1.69, 7.63, repro,
2006-06-27,1.60, -0.77, -14.21, 2.21, 1.69, 7.59, repro,
2006-06-28,-0.40, 2.52, -3.73, 2.23, 1.68, 7.64, repro,
2006-06-29,-1.10, 1.34, -5.08, 2.63, 2.01, 9.43, repro,
2006-06-30,2.20, 2.95, -10.25, 2.23, 1.74, 7.86, repro,
2006-07-01,1.90, 4.27, -8.13, 2.20, 1.65, 7.52, repro,
2006-07-02,2.56, 2.28, -4.48, 2.16, 1.63, 7.46, repro,
2006-07-03,2.69, 0.21, -17.82, 2.13, 1.58, 7.33, repro,
2006-07-04,2.68, 3.42, 0.61, 2.14, 1.60, 7.40, repro,
2006-07-05,1.95, 2.39, -13.54, 2.14, 1.59, 7.41, repro,
2006-07-06,3.38, 1.96, -11.17, 2.19, 1.65, 7.58, repro,
2006-07-07,1.15, 2.01, -17.29, 2.14, 1.59, 7.36, repro,
2006-07-08,0.11, 2.12, -11.07, 2.13, 1.59, 7.35, repro,
2006-07-09,1.26, 1.77, -3.51, 2.16, 1.63, 7.49, repro,
2006-07-10,1.41, 3.34, -4.40, 2.13, 1.58, 7.35, repro,
2006-07-11,2.27, 1.60, 4.19, 2.15, 1.60, 7.48, repro,
2006-07-12,-0.51, 1.29, 0.17, 2.14, 1.60, 7.45, repro,
2006-07-13,2.85, 2.19, -3.59, 2.13, 1.58, 7.39, repro,
2006-07-14,2.10, 2.14, 0.46, 2.13, 1.60, 7.41, repro,
2006-07-15,1.88, 2.05, -6.47, 2.13, 1.59, 7.43, repro,
2006-07-16,1.30, 3.30, -10.64, 2.15, 1.60, 7.50, repro,
2006-07-17,1.30, 0.74, -6.33, 2.18, 1.65, 7.69, repro,
2006-07-18,1.97, 1.26, -2.23, 2.07, 1.54, 7.10, repro,
2006-07-19,2.21, 1.96, -6.12, 2.08, 1.56, 7.17, repro,
2006-07-20,0.85, 1.70, -3.63, 2.07, 1.55, 7.12, repro,
2006-07-21,1.67, 1.34, -6.38, 2.07, 1.56, 7.14, repro,
2006-07-22,1.38, 3.29, -10.65, 2.10, 1.56, 7.19, repro,
2006-07-23,1.58, 3.36, -2.07, 2.10, 1.55, 7.19, repro,
2006-07-24,2.80, 2.93, 6.69, 2.20, 1.64, 7.63, repro,
2006-07-25,2.25, 2.02, 4.58, 2.07, 1.56, 7.16, repro,
2006-07-26,2.64, 1.29, -0.67, 2.05, 1.55, 7.10, repro,
2006-07-27,-0.35, 0.98, -1.67, 2.07, 1.55, 7.09, repro,
2006-07-28,0.64, 0.15, -1.27, 2.07, 1.56, 7.18, repro,
2006-07-29,1.10, -0.08, 0.16, 2.11, 1.61, 7.28, repro,
2006-07-30,2.07, 0.75, 2.78, 2.12, 1.61, 7.28, repro,
2006-07-31,2.50, 2.74, -3.83, 2.06, 1.55, 7.12, repro,
2006-08-01,2.58, 2.12, -9.42, 2.08, 1.56, 7.22, repro,
2006-08-02,3.14, 1.94, -1.92, 2.12, 1.62, 7.48, repro,
2006-08-03,2.37, 1.98, 1.33, 2.12, 1.61, 7.44, repro,
2006-08-04,1.59, 1.33, 0.40, 2.16, 1.64, 7.52, repro,
2006-08-05,0.38, 1.89, -2.11, 2.16, 1.67, 7.64, repro,
2006-08-06,-0.73, 1.71, -2.40, 2.10, 1.61, 7.43, repro,
2006-08-07,1.51, 1.82, -1.59, 2.24, 1.74, 7.85, repro,
2006-08-08,-1.35, 0.60, -13.85, 2.17, 1.60, 7.37, repro,
2006-08-09,-0.24, 1.20, -7.42, 2.08, 1.57, 7.20, repro,
2006-08-10,1.58, 0.14, -1.71, 2.07, 1.56, 7.12, repro,
2006-08-11,-0.45, -0.27, 1.02, 2.07, 1.57, 7.19, repro,
2006-08-12,0.99, 0.75, -4.15, 2.07, 1.56, 7.16, repro,
2006-08-13,1.18, -0.97, -1.87, 2.07, 1.56, 7.15, repro,
2006-08-14,-0.29, -1.31, 3.00, 2.12, 1.61, 7.30, repro,
2006-08-15,0.98, -0.66, -0.13, 2.19, 1.64, 7.41, repro,
2006-08-16,0.56, -1.09, -3.62, 2.07, 1.56, 7.13, repro,
2006-08-17,1.39, 0.44, -5.68, 2.11, 1.61, 7.32, repro,
2006-08-18,1.45, 0.03, -5.66, 2.12, 1.60, 7.33, repro,
2006-08-19,1.15, -0.81, -3.98, 2.07, 1.57, 7.18, repro,
2006-08-20,1.04, -0.41, 2.52, 2.07, 1.58, 7.18, repro,
2006-08-21,1.55, 0.49, -3.83, 2.07, 1.58, 7.20, repro,
2006-08-22,0.23, 0.35, 0.78, 2.09, 1.59, 7.28, repro,
2006-08-23,-0.03, -0.67, 2.25, 2.08, 1.58, 7.23, repro,
2006-08-24,1.35, -0.95, -0.43, 2.08, 1.59, 7.27, repro,
2006-08-25,1.27, -0.41, -0.76, 2.14, 1.68, 7.61, repro,
2006-08-26,0.42, 0.09, 2.93, 2.13, 1.65, 7.58, repro,
2006-08-27,1.52, 0.05, -3.42, 2.15, 1.67, 7.68, repro,
2006-08-28,1.67, -1.35, -0.77, 2.14, 1.67, 7.64, repro,
2006-08-29,0.81, -0.13, -1.08, 2.15, 1.68, 7.64, repro,
2006-08-30,0.14, -0.16, 1.46, 2.15, 1.68, 7.64, repro,
2006-08-31,0.12, -0.31, -7.68, 2.15, 1.68, 7.63, repro,
2006-09-01,-0.24, -0.97, -3.53, 2.15, 1.69, 7.74, repro,
2006-09-02,0.81, 0.02, 0.26, 2.14, 1.68, 7.67, repro,
2006-09-03,2.15, 0.85, -4.78, 2.15, 1.68, 7.66, repro,
2006-09-04,-0.09, 1.06, -7.60, 2.29, 1.76, 7.95, repro,
2006-09-05,1.88, -0.40, -9.83, 2.21, 1.70, 7.74, repro,
2006-09-06,1.82, 0.28, -2.97, 2.15, 1.67, 7.61, repro,
2006-09-07,2.01, -1.28, 3.95, 2.19, 1.72, 7.95, repro,
2006-09-08,1.99, -1.10, -0.25, 2.20, 1.72, 7.94, repro,
2006-09-09,1.87, -1.64, -1.66, 2.12, 1.64, 7.42, repro,
2006-09-10,1.00, -0.98, -2.24, 2.12, 1.64, 7.45, repro,
2006-09-11,1.66, -0.56, -0.97, 2.11, 1.63, 7.39, repro,
2006-09-12,1.77, -1.15, -2.21, 2.15, 1.67, 7.51, repro,
2006-09-13,2.83, 0.13, 5.82, 2.13, 1.63, 7.43, repro,
2006-09-14,0.80, -2.26, 4.69, 2.21, 1.72, 7.69, repro,
2006-09-15,2.81, -1.16, 1.88, 2.15, 1.61, 7.34, repro,
2006-09-16,2.42, -1.44, 1.18, 2.08, 1.60, 7.27, repro,
2006-09-17,1.52, -0.43, 0.51, 2.08, 1.59, 7.27, repro,
2006-09-18,2.14, -1.02, 5.87, 2.08, 1.58, 7.23, repro,
2006-09-19,2.59, -2.37, 6.92, 2.10, 1.60, 7.33, repro,
2006-09-20,1.16, -0.51, 0.37, 2.08, 1.59, 7.26, repro,
2006-09-21,1.11, -2.44, 5.54, 2.13, 1.64, 7.45, repro,
2006-09-22,1.16, -0.98, 4.92, 2.22, 1.68, 7.59, repro,
2006-09-23,-0.11, -4.11, 7.50, 2.13, 1.63, 7.40, repro,
2006-09-24,1.74, -1.30, 3.83, 2.17, 1.63, 7.48, repro,
2006-09-25,1.59, -0.22, 2.71, 2.19, 1.65, 7.54, repro,
2006-09-26,1.30, 0.02, -2.60, 2.14, 1.61, 7.31, repro,
2006-09-27,1.24, 0.65, -1.18, 2.13, 1.61, 7.29, repro,
2006-09-28,1.20, -0.43, 0.34, 2.14, 1.62, 7.27, repro,
2006-09-29,1.35, 0.16, 6.78, 2.11, 1.62, 7.34, repro,
2006-09-30,1.13, -0.09, 7.83, 2.15, 1.65, 7.54, repro,
2006-10-01,1.41, -0.51, 3.74, 2.14, 1.64, 7.50, repro,
2006-10-02,0.38, 0.40, 0.89, 2.18, 1.69, 7.54, repro,
2006-10-03,0.98, -0.23, -5.47, 2.19, 1.70, 7.64, repro,
2006-10-04,1.17, -1.44, 6.07, 2.10, 1.60, 7.29, repro,
2006-10-05,1.50, -0.45, 3.52, 2.13, 1.61, 7.37, repro,
2006-10-06,0.45, -0.50, -1.25, 2.09, 1.60, 7.26, repro,
2006-10-07,1.62, -1.08, -4.07, 2.21, 1.69, 7.72, repro,
2006-10-08,0.84, -0.27, -6.51, 2.13, 1.64, 7.39, repro,
2006-10-09,2.28, -0.65, -4.31, 2.13, 1.65, 7.42, repro,
2006-10-10,2.60, 4.20, -1.55, 2.17, 1.65, 7.60, repro,
2006-10-11,-0.88, 1.10, -0.49, 2.17, 1.65, 7.57, repro,
2006-10-12,0.74, -0.92, 3.42, 2.11, 1.62, 7.36, repro,
2006-10-13,0.41, -0.31, 4.14, 2.06, 1.58, 7.19, repro,
2006-10-14,0.76, -0.67, 1.24, 2.12, 1.68, 7.51, repro,
2006-10-15,1.15, -0.76, 11.32, 2.18, 1.71, 7.64, repro,
2006-10-16,0.62, -1.35, 11.56, 2.13, 1.63, 7.51, repro,
2006-10-17,0.16, 0.01, 7.74, 2.13, 1.65, 7.68, repro,
2006-10-18,-0.52, 0.22, -3.74, 2.09, 1.60, 7.36, repro,
2006-10-19,1.10, 0.31, 0.81, 2.34, 1.75, 8.02, repro,
2006-10-20,-2.38, 1.34, 1.87, 2.47, 1.94, 8.98, repro,
2006-10-21,-1.08, 0.54, 1.16, 2.33, 1.77, 8.14, repro,
2006-10-22,-0.12, 1.15, -1.32, 2.22, 1.68, 7.93, repro,
2006-10-23,2.03, -0.19, 2.19, 2.09, 1.64, 7.41, repro,
2006-10-24,0.27, -0.27, -0.39, 2.28, 1.69, 7.91, repro,
2006-10-25,0.08, -1.86, 5.76, 2.19, 1.70, 7.67, repro,
2006-10-26,1.80, -0.25, -0.74, 2.17, 1.75, 7.80, repro,
2006-10-27,1.96, 0.35, -6.94, 2.21, 1.76, 7.80, repro,
2006-10-28,0.25, 0.62, -4.31, 2.22, 1.68, 7.78, repro,
2006-10-29,0.61, -0.32, 2.32, 2.07, 1.61, 7.35, repro,
2006-10-30,0.72, -0.46, 4.42, 2.12, 1.70, 7.55, repro,
2006-10-31,0.46, -0.14, 0.88, 2.20, 1.80, 7.99, repro,
2006-11-01,1.05, -0.36, -2.91, 2.29, 1.74, 8.04, repro,